SL-14 DEB, 47085

Orbit data source: Space-Track

SL-14 DEB, 47085 is space debris in LEO originally from a launch on Thu, 15 Aug 1991 UTC launched from the Plesetsk Missile And Space Complex (PKMTR). Debris objects in space refer to the collection of defunct objects orbiting the Earth. Examples of debris include non-operational satellites, rocket bodies, and fragments generated from explosions, collisions, or faulty payload assembly.

Loading next visibility...
Identifier
47085, 1991-056DK
Orbit
LEO
Country
Flag of CISCIS
Related business
Manufacturer
Unknown
Mission
Spacecraft
Bus & Motor
Unknown
Mass
Unknown
Launch date (UTC)
1991-08-15 (34 years ago)
Launch vehicle
Unknown
Launch site
Plesetsk Missile And Space Complex (PKMTR)
Object type
Payload
Rocket body
Debris
Shape & HBR
Unknown shape, 0.1 m
Radar Cross Section
Small (<0.1 m²)

Expand to show TLE details & history
Last TLE update: 6 days ago

TLE from 6 days ago
0 SL-14 DEB
1 47085U 91056DK  25282.26352612  .00000708  00000-0  13592-2 0  9998
2 47085  82.5564 275.9700 0085742 188.1455 171.8291 13.34667503240254
Epoch: 2025-10-09T06:19Z
TLE epoch observation values (Epoch: 2025-10-09T06:19:28.656Z)
Latitude
-0.00008°
Longitude
162.97437°
Altitude
1,195.781 km
Speed
7.225 km/s
True Right ascension
18h 23m 52s
True Declination
0° 00' 00"
Sunlit
Object was in daylight at epoch
Visualization orbit readout
Latitude
Unknown
Longitude
Unknown
Altitude
Unknown
Speed
Unknown
Apparent Right ascension
Unknown
Apparent Declination
Unknown
Sunlit
N/A
Visualization observer readout
Local Sidereal Time
18:01:59
Azimuth
Unknown
Elevation
Unknown
Doppler factor
Unknown
Orbital elements
Apogee altitude
1,190.774 km
Perigee altitude
1,062.083 km
Semi-major axis
7,504.566 km
Eccentricity
0.00857
Inclination
82.5564°
RAAN
275.97°
Arg. of periapsis
188.1455°
True anomaly
171.96728°
Mean anomaly
171.8291°
Eccentric anomaly
171.89833°
Mean motion
3.33853 °/min
Orbital period
107.83 mins
BSTAR
0.0013592
Loading maneuver chart data...
Computing Atmospheric mass density...
Loading historical data...
Loading historical data...
Loading historical data...
Loading historical data...
Loading historical data...
Loading historical data...
Loading historical data...

Documentation

Showing up to 5 results
|